Regional Weather Roundup
Issued by NWS

Home | Current Version | Previous Version | Text Only | Print | Product List | Glossary Off
Versions: 1 2 3 4 5 6 7 8 9 10 11 12 13 14 15 16 17 18 19 20 21 22 23 24 25 26 27 28 29 30 31 32 33 34 35 36 37 38 39 40 41 42 43 44 45 46 47 48 49 50

000
ASUS43 KBIS 290310
RWRND

NORTH DAKOTA REGIONAL WEATHER ROUNDUP
NATIONAL WEATHER SERVICE BISMARCK ND
1000 PM CDT TUE JUL 28 2015

NOTE: "FAIR" INDICATES FEW OR NO CLOUDS BELOW 12,000 FEET WITH NO
SIGNIFICANT WEATHER AND/OR OBSTRUCTIONS TO VISIBILITY.


NDZ001>003-009>011-017-290400-
NORTHWEST NORTH DAKOTA

CITY           SKY/WX    TMP DP  RH WIND       PRES   REMARKS
WILLISTON      CLOUDY    58  51  78 W20G30    29.88R
MINOT          LGT RAIN  59  53  80 W37G55    29.60R
MINOT AFB      CLOUDY    59  58  98 W35G49    29.57R
$$

NDZ018>021-031>035-040>046-290400-
SOUTHWEST NORTH DAKOTA

CITY           SKY/WX    TMP DP  RH WIND       PRES   REMARKS
BISMARCK       PTCLDY    65  45  48 W29G48    29.87R
DICKINSON      PTCLDY    62  44  51 W14       29.93R
GARRISON         N/A     57  51  80 W36G56    29.75R
HETTINGER ARPT CLEAR     58  43  57 W12       30.02R
$$

NDZ004>008-012>016-024-026-027-054-290400-
NORTHEAST NORTH DAKOTA

CITY           SKY/WX    TMP DP  RH WIND       PRES   REMARKS
GRAND FORKS    MOCLDY    68  50  52 SW26G39   29.58F
GRND FRKS AFB  CLOUDY    68  50  52 SW22G45   29.58F
DEVILS LAKE    CLOUDY    59  50  72 W36G51    29.51S
$$

NDZ022-023-025-028>030-036>039-047>053-290400-
SOUTHEAST NORTH DAKOTA

CITY           SKY/WX    TMP DP  RH WIND       PRES   REMARKS
FARGO          CLEAR     70  49  47 SW22G29   29.75S
JAMESTOWN      PTCLDY    65  46  50 W28G47    29.75S
$$




USA.gov is the U.S. government's official web portal to all federal, state and local government web resources and services.